Weather History for Corpus Christi, TX

Change the Weather History Date:

Saturday, July 6, 2013

  Actual Average Record
Temperature  
Mean Temperature 85 °F 84 °F  
Max Temperature 94 °F 92 °F 100 °F (2005)
Min Temperature 75 °F 75 °F 68 °F (1997)
Degree Days  
Heating Degree Days 0 0  
Month to date heating degree days 0 0  
Since 1 June heating degree days 0 0  
Since 1 July heating degree days 0 0  
Cooling Degree Days 20 19  
Month to date cooling degree days 119 110  
Year to date cooling degree days 1795 1473  
Since 1 June cooling degree days 777 632  
Growing Degree Days 34 (Base 50)    
Moisture  
Dew Point 73 °F    
Average Humidity 68    
Maximum Humidity 87    
Minimum Humidity 49    
Precipitation  
Precipitation 0.00 in 0.12 in 3.49 in (1981)
Month to date precipitation T 0.74  
Year to date precipitation 7.07 14.37  
Snow  
Snow 0.00 in - - ()
Month to date snowfall 0.0  
Since 1 June snowfall 0.0  
Since 1 July snowfall 0.0  
Snow Depth 0.00 in    
Sea Level Pressure  
Sea Level Pressure 29.87 in    
Wind  
Wind Speed 10 mph (ESE)    
Max Wind Speed 24 mph    
Max Gust Speed 28 mph    
Visibility 10 miles    
Events      
T = Trace of Precipitation, MM = Missing Value Source: NWS Daily Summary

Daily Weather History Graph

Daily Weather History Graph

Search for Another Location

Airport:

Trip Planner

Search our weather history database for the weather conditions in past years. The results will help you decide how hot, cold, wet, or windy it might be!

Date:

Astronomy

Jul. 06, 2013 Rise Set
Actual Time 6:39 AM CDT 8:29 PM CDT
Civil Twilight 6:13 AM CDT 8:56 PM CDT
Nautical Twilight 5:41 AM CDT 9:27 PM CDT
Astronomical Twilight 5:07 AM CDT 10:01 PM CDT
Moon 5:22 AM CDT (7/6) 7:16 PM CDT (7/6)
Length of Visible Light 14h 42m
Length of Day
13h 49m
Waning Crescent, 2% of the Moon is Illuminated
Jul 6
Waning Crescent
Jul 8
New
Jul 15
First Quarter
Jul 22
Full
Jul 29
Last Quarter

Hourly Weather History & Observations

Time (CDT) Temp. Heat Index Dew Point Humidity Pressure Visibility Wind Dir Wind Speed Gust Speed Precip Events Conditions
12:51 AM 79.0 °F - 72.0 °F 79% 29.89 in 10.0 mi SE 5.8 mph - N/A   Partly Cloudy
1:51 AM 79.0 °F - 72.0 °F 79% 29.90 in 10.0 mi Calm Calm - N/A   Partly Cloudy
2:51 AM 75.9 °F - 70.0 °F 82% 29.88 in 10.0 mi Calm Calm - N/A   Partly Cloudy
3:51 AM 75.9 °F - 70.0 °F 82% 29.88 in 10.0 mi Calm Calm - N/A   Partly Cloudy
4:51 AM 75.9 °F - 71.1 °F 85% 29.87 in 10.0 mi Calm Calm - N/A   Partly Cloudy
5:51 AM 77.0 °F - 72.0 °F 84% 29.87 in 10.0 mi Calm Calm - N/A   Partly Cloudy
6:51 AM 77.0 °F - 72.0 °F 84% 29.88 in 7.0 mi Calm Calm - N/A   Partly Cloudy
7:51 AM 81.0 °F 86.7 °F 75.0 °F 82% 29.88 in 8.0 mi NNE 5.8 mph - N/A   Partly Cloudy
8:51 AM 84.9 °F 94.1 °F 75.9 °F 74% 29.89 in 10.0 mi NE 9.2 mph - N/A   Scattered Clouds
9:28 AM 87.8 °F 95.6 °F 73.4 °F 62% 29.89 in 10.0 mi East 10.4 mph - N/A   Mostly Cloudy
9:51 AM 89.1 °F 99.1 °F 75.0 °F 63% 29.89 in 10.0 mi East 11.5 mph 17.3 mph N/A   Scattered Clouds
10:51 AM 90.0 °F 96.9 °F 72.0 °F 55% 29.90 in 10.0 mi East 13.8 mph - N/A   Scattered Clouds
11:51 AM 91.9 °F 100.7 °F 73.0 °F 54% 29.90 in 10.0 mi East 13.8 mph 19.6 mph N/A   Scattered Clouds
12:51 PM 91.9 °F 99.5 °F 72.0 °F 52% 29.89 in 10.0 mi ESE 15.0 mph 20.7 mph N/A   Scattered Clouds
1:51 PM 93.9 °F 100.8 °F 71.1 °F 47% 29.88 in 10.0 mi East 15.0 mph 23.0 mph N/A   Scattered Clouds
2:51 PM 93.0 °F 101.9 °F 73.0 °F 52% 29.86 in 10.0 mi ESE 20.7 mph 24.2 mph N/A   Scattered Clouds
3:51 PM 93.9 °F 103.4 °F 73.0 °F 51% 29.84 in 10.0 mi ESE 18.4 mph 26.5 mph N/A   Partly Cloudy
4:51 PM 93.0 °F 100.7 °F 72.0 °F 50% 29.83 in 10.0 mi East 21.9 mph - N/A   Scattered Clouds
5:51 PM 91.0 °F 98.2 °F 72.0 °F 53% 29.83 in 10.0 mi ESE 20.7 mph - N/A   Partly Cloudy
6:51 PM 91.0 °F 97.6 °F 71.1 °F 52% 29.83 in 10.0 mi ESE 16.1 mph 23.0 mph N/A   Partly Cloudy
7:51 PM 88.0 °F 95.6 °F 73.0 °F 61% 29.84 in 10.0 mi SE 19.6 mph - N/A   Scattered Clouds
8:51 PM 86.0 °F 93.8 °F 73.9 °F 67% 29.85 in 10.0 mi SE 16.1 mph - N/A   Partly Cloudy
9:51 PM 84.0 °F 91.9 °F 75.0 °F 74% 29.86 in 10.0 mi SSE 13.8 mph - N/A   Partly Cloudy
10:51 PM 82.9 °F 90.2 °F 75.0 °F 77% 29.87 in 10.0 mi SSE 9.2 mph - N/A   Partly Cloudy
11:51 PM 82.0 °F 87.9 °F 73.9 °F 76% 29.87 in 10.0 mi SE 4.6 mph - N/A   Partly Cloudy